Wind_Speed
3 3 3 3 3 3 3 3 3 3 4 3 3 3 3 3 3 4 4 4 4 4 3 2 2 2 2 1 1 1 1 1 1 1 2 2 2 2 2 2 3 4 5 6 6 6 6 5 5
3 4 4 4 3 4 3 2 3 3 3 3 3 3 2 2 3 3 4 4 4 4 4 3 2 2 2 2 2 2 2 1 1 2 2 3 3 3 3 2 3 4 5 5 6 6 6 6 6
3 4 4 4 4 4 3 2 3 3 3 3 3 2 2 2 2 2 3 4 4 4 4 3 3 2 2 3 2 2 2 2 2 2 2 3 3 3 3 3 3 4 5 5 6 6 7 7 7
4 4 4 4 4 4 4 3 3 3 3 3 3 2 3 2 2 2 3 3 4 4 5 4 4 3 3 3 3 2 2 2 2 3 3 3 3 3 3 3 4 4 5 6 6 6 7 8 8
4 4 4 4 4 4 4 4 4 4 4 3 3 3 3 3 2 2 2 3 4 4 4 4 4 3 3 4 3 3 3 3 3 3 3 3 3 3 3 4 4 5 5 6 7 7 7 8 9
4 4 4 4 4 4 4 4 4 4 4 4 3 3 3 3 3 3 3 3 3 3 4 3 3 3 3 3 4 3 3 3 3 3 3 3 3 4 4 4 4 5 6 6 6 7 8 8 9
4 4 4 5 5 5 4 4 3 3 4 4 4 3 4 3 3 3 4 4 4 4 3 3 3 3 3 3 3 3 3 3 3 3 3 4 4 3 4 4 4 5 6 6 6 6 7 9 10
5 5 5 5 5 4 4 4 4 4 4 4 4 4 3 3 3 3 3 4 4 3 3 3 3 3 3 3 3 3 4 4 4 4 4 4 4 3 4 4 4 4 5 6 6 7 8 8 9
6 5 5 5 5 4 4 5 4 4 4 4 4 4 3 4 3 3 3 4 3 3 3 3 3 3 3 3 2 3 3 4 4 4 4 4 4 3 4 4 4 4 5 6 6 7 7 7 8
5 5 5 5 5 5 5 5 5 5 5 5 4 4 4 4 4 4 4 3 4 3 3 3 3 3 3 3 3 3 4 4 4 4 4 4 4 4 5 5 5 5 5 6 6 7 7 7 7
5 6 6 5 6 6 6 6 5 5 5 5 5 5 4 4 4 4 4 4 4 4 4 3 3 3 3 3 3 4 3 3 4 4 4 4 4 5 5 6 5 5 6 6 6 7 8 8 8
6 6 7 7 7 7 6 6 7 7 7 6 6 5 5 5 6 6 5 5 4 4 4 4 3 3 4 4 4 4 4 4 4 4 4 4 5 5 6 6 6 6 6 7 7 7 8 8 8
6 7 7 8 7 7 7 7 7 8 8 8 7 6 6 6 6 6 6 6 5 5 4 4 4 4 4 5 5 5 5 5 5 5 5 5 6 6 6 6 6 7 7 7 7 7 7 8 8
6 6 6 7 7 7 7 8 8 8 8 8 8 8 7 7 7 6 6 6 6 6 5 5 4 4 5 5 6 6 6 5 5 5 5 5 6 6 6 6 7 7 7 7 7 8 8 8 8
7 7 7 7 7 8 8 8 8 8 9 10 9 9 9 8 8 8 7 7 7 7 6 6 6 5 6 6 6 6 6 6 5 6 6 6 6 7 7 7 7 8 8 9 9 9 9 9 9
8 8 7 7 8 8 8 8 8 8 9 10 10 10 9 9 9 9 8 8 8 8 7 7 6 6 6 6 6 6 6 6 6 6 7 7 7 8 8 9 9 9 9 10 10 10 10 11 11
9 9 9 9 9 9 9 9 8 9 9 9 10 10 10 10 10 9 9 9 8 7 6 6 6 6 6 6 6 6 7 7 6 6 7 7 8 9 9 9 10 10 10 10 11 11 11 12 12
10 10 10 11 10 10 10 10 10 10 10 10 9 10 10 10 10 10 9 9 8 7 6 6 7 7 7 7 6 7 7 7 7 7 7 7 8 9 10 10 10 10 11 11 11 11 12 12 12
12 12 12 12 12 12 12 12 12 11 11 11 11 10 9 9 10 10 9 9 9 8 8 7 8 8 8 7 7 7 7 7 7 7 8 8 9 10 10 10 10 11 11 11 12 12 13 13 13
13 13 13 13 13 14 14 13 13 12 12 12 11 11 11 10 10 10 10 10 10 10 9 9 9 9 9 8 8 8 8 8 8 9 9 10 10 10 11 12 12 11 11 12 12 12 13 13 14
14 14 14 14 14 15 15 14 13 13 13 13 12 12 12 11 11 11 11 12 12 11 11 11 10 10 9 9 9 9 9 10 10 10 10 10 11 11 12 12 12 12 12 13 13 13 14 14 15
15 15 15 15 15 15 15 15 14 13 13 13 12 12 13 12 12 11 12 13 13 12 12 12 11 11 11 10 10 10 10 11 11 11 11 12 12 12 13 13 13 13 14 14 14 14 15 16 16
16 16 16 16 16 16 15 15 13 13 13 13 13 13 13 13 13 13 12 13 14 14 13 14 13 12 12 11 11 11 12 12 13 13 13 13 13 13 13 13 14 15 15 15 15 15 16 16 16
16 16 16 17 17 17 15 15 14 14 14 14 14 14 14 14 14 14 13 14 14 14 14 14 14 14 13 13 13 12 12 13 13 14 14 14 14 14 14 14 15 16 16 16 16 16 17 17 17
17 17 17 18 17 16 16 16 15 15 16 16 16 15 16 15 15 15 15 15 15 15 15 15 15 15 15 14 14 14 13 14 14 15 16 15 15 15 15 15 16 16 16 17 17 17 17 17 18
17 18 18 18 18 17 17 16 15 16 16 17 17 17 16 16 16 16 16 15 16 16 16 16 16 15 16 15 15 15 15 16 16 16 17 16 16 16 16 16 16 16 17 17 17 17 18 18 18
18 19 19 20 20 19 17 16 16 16 17 17 18 17 17 17 17 17 17 17 16 17 17 17 17 17 17 17 17 17 17 18 18 18 17 17 17 17 17 16 16 17 17 17 18 18 19 19 19
18 18 20 21 21 20 18 16 15 15 16 16 17 18 17 18 18 18 18 18 18 17 18 18 18 18 18 18 18 18 18 18 18 18 18 17 17 17 17 17 17 17 17 18 18 19 19 19 19
19 19 20 20 20 20 19 17 15 15 16 16 17 18 18 17 17 18 18 19 19 18 18 19 19 19 19 19 19 18 18 18 18 18 18 18 18 18 18 17 18 18 18 18 19 19 19 19 19
21 20 20 21 21 21 20 17 16 16 16 17 18 18 18 18 18 18 19 19 19 19 19 20 21 20 20 20 19 18 19 19 19 20 20 20 19 19 18 18 19 19 19 19 19 19 20 20 20
Wind_Direction
246 248 256 262 258 241 228 216 212 213 208 206 209 209 201 209 211 206 205 208 210 212 214 219 219 218 219 233 247 243 242 257 293 315 326 318 309 310 305 270 240 240 240 238 233 233 236 239 240
251 248 252 258 255 248 240 221 211 220 211 209 214 210 200 208 203 204 212 210 215 220 219 215 218 219 227 238 238 242 254 267 292 311 320 319 309 304 302 287 256 251 245 247 245 243 239 240 245
253 249 249 254 255 244 237 231 239 231 222 215 211 209 211 215 206 209 217 222 223 223 219 217 219 229 244 247 241 243 245 259 282 297 308 310 308 304 297 286 277 263 256 259 255 248 242 246 250
252 249 247 249 252 243 226 230 234 235 215 211 215 217 220 227 219 227 224 223 224 226 225 222 224 235 250 245 238 245 241 267 293 298 296 296 290 284 281 276 274 268 265 264 263 256 249 251 252
260 260 251 251 252 242 233 227 223 228 225 227 230 237 243 241 239 241 235 225 223 225 220 215 219 230 239 238 239 249 251 270 286 295 296 292 288 273 274 276 272 271 271 266 263 265 260 254 254
273 268 254 249 247 236 235 229 225 224 223 233 242 256 247 245 243 237 237 236 232 231 220 220 219 220 230 233 230 242 254 268 278 290 294 292 290 281 275 277 278 279 273 269 268 268 266 266 262
274 268 260 247 245 244 236 233 230 222 225 233 244 250 234 234 231 235 241 242 241 237 228 221 225 223 225 226 233 250 257 267 276 286 288 287 285 284 274 274 276 280 275 270 270 270 269 269 266
276 270 267 254 248 253 241 236 234 228 225 232 234 237 236 225 219 226 232 232 233 232 229 228 227 231 236 236 249 256 263 269 274 275 279 284 281 277 278 280 274 273 269 269 270 272 274 269 267
278 274 268 253 242 244 243 238 231 232 226 226 230 234 237 229 224 221 222 223 226 229 229 237 231 228 235 244 259 265 268 273 275 275 279 282 274 264 269 271 280 273 269 267 266 266 270 270 269
274 270 266 262 255 246 242 244 240 231 227 230 232 233 237 238 236 229 227 226 228 230 234 242 232 225 228 241 255 261 270 274 276 275 275 273 266 263 270 277 276 267 266 266 263 262 267 269 267
270 270 270 265 260 252 246 245 244 241 238 235 232 231 228 232 235 234 232 235 233 234 237 239 230 231 236 247 257 264 269 273 276 274 269 266 268 268 272 277 277 274 266 261 258 260 265 270 270
266 266 267 264 259 255 248 247 241 240 240 236 232 232 233 234 233 231 229 233 236 241 244 244 241 246 251 255 259 264 270 280 280 277 273 275 274 276 277 276 275 274 267 265 266 267 270 272 273
271 269 267 263 257 251 247 247 243 237 237 238 240 237 236 235 234 232 232 233 237 241 243 242 244 252 261 260 261 268 274 276 275 274 278 280 278 278 282 283 278 275 272 271 271 271 268 270 271
271 268 268 264 252 245 244 247 247 241 239 241 245 244 241 242 237 235 235 237 241 240 241 245 251 261 267 264 265 270 272 269 266 270 274 276 281 283 285 286 282 276 277 278 276 277 276 274 277
272 271 267 264 259 251 249 250 248 246 243 243 243 243 243 241 236 237 239 238 239 241 244 248 258 267 268 269 269 267 264 262 264 270 274 277 281 284 285 286 285 281 279 281 282 281 281 280 282
266 266 267 264 259 256 254 256 254 249 246 242 241 241 243 242 240 240 240 239 243 242 244 248 255 263 269 271 270 262 259 263 267 271 276 280 283 285 287 287 286 285 284 283 282 281 282 283 282
260 262 264 263 260 259 261 261 256 252 249 245 242 243 244 241 239 240 240 240 243 246 247 245 250 257 267 268 264 259 259 265 269 274 280 287 289 289 290 289 286 285 284 284 285 283 282 281 279
260 259 262 262 260 260 261 261 261 257 255 250 246 243 241 238 237 240 240 240 239 243 246 247 251 257 263 263 259 258 260 264 269 275 280 286 289 291 291 290 288 287 285 284 285 284 282 281 281
259 262 262 263 262 261 260 261 263 258 255 252 247 242 237 237 236 241 246 242 239 241 247 254 254 255 257 260 261 264 265 267 272 279 283 286 289 288 289 289 288 287 285 283 283 284 284 284 283
262 264 263 264 264 263 260 261 260 258 253 250 246 242 240 238 238 240 243 244 243 239 247 255 256 255 257 261 265 268 270 271 275 280 283 286 289 289 287 289 289 288 286 284 283 284 285 284 285
264 267 266 265 264 263 262 260 256 254 253 250 249 247 243 243 240 241 243 245 244 242 247 254 255 254 255 258 263 269 273 275 278 280 282 285 286 289 288 288 288 287 287 285 284 285 285 285 286
264 264 265 264 265 264 263 259 255 254 252 251 251 249 248 246 246 246 246 246 246 247 249 252 253 254 256 257 261 268 271 275 277 281 284 285 286 287 287 286 288 289 289 288 288 287 287 287 287
265 265 266 265 265 264 262 259 254 252 252 251 251 250 250 248 249 250 250 249 248 250 251 251 252 253 258 260 263 267 271 274 278 280 282 282 284 286 287 287 288 290 290 289 290 290 290 289 288
264 265 265 264 265 265 262 257 253 251 250 250 251 252 253 252 252 253 255 255 253 251 251 251 252 254 258 260 263 269 272 273 275 277 280 281 282 284 286 286 288 290 290 289 289 289 290 290 290
264 265 265 264 264 265 261 258 253 252 251 251 253 255 254 254 255 256 257 258 257 253 251 252 254 257 260 262 265 268 271 273 273 275 278 281 281 283 286 287 289 290 290 289 288 288 290 290 291
264 264 264 266 266 264 261 260 256 256 255 254 255 255 256 254 255 256 257 258 259 255 252 254 256 257 261 264 267 267 270 272 273 274 277 281 281 283 286 287 289 290 289 288 288 288 289 289 290
264 262 263 265 265 264 262 261 259 261 260 258 256 256 258 257 257 258 260 259 261 258 255 257 258 258 261 265 268 269 270 271 273 275 276 278 279 282 284 285 287 287 288 288 288 289 289 289 289
263 261 261 263 265 265 262 260 260 260 261 260 259 258 259 260 260 259 260 260 260 259 257 260 260 259 261 265 268 270 269 271 272 274 275 277 278 280 282 283 286 287 287 287 288 290 290 289 288
262 261 262 264 264 265 265 262 261 260 259 260 260 260 259 261 262 261 263 264 264 260 260 260 261 261 261 265 268 270 269 269 273 274 274 276 276 278 281 284 286 288 288 288 289 290 290 290 288
261 260 261 262 261 262 263 262 260 260 260 260 260 260 261 262 263 262 262 264 264 262 261 260 260 261 261 263 267 271 272 273 274 274 274 274 275 276 279 283 285 287 289 289 289 289 288 289 289
Height
5850 5851 5851 5853 5853 5853 5853 5854 5854 5854 5855 5855 5856 5856 5857 5858 5859 5862 5861 5860 5860 5861 5861 5862 5862 5863 5863 5863 5863 5864 5864 5864 5864 5864 5864 5864 5864 5864 5865 5865 5866 5866 5867 5868 5869 5869 5870 5871 5871
5850 5851 5852 5853 5852 5852 5853 5853 5854 5854 5855 5855 5855 5856 5856 5857 5858 5859 5859 5859 5860 5860 5861 5861 5861 5862 5862 5863 5863 5863 5863 5864 5864 5864 5864 5864 5864 5864 5864 5865 5865 5866 5866 5867 5868 5868 5869 5870 5871
5850 5851 5852 5852 5852 5853 5853 5853 5854 5854 5854 5855 5855 5856 5856 5857 5857 5858 5858 5858 5859 5860 5860 5861 5861 5861 5861 5862 5862 5862 5863 5863 5863 5863 5863 5863 5864 5864 5864 5865 5865 5865 5866 5866 5867 5867 5868 5869 5869
5850 5851 5852 5852 5852 5852 5853 5853 5853 5854 5854 5854 5855 5855 5856 5856 5857 5857 5857 5858 5859 5859 5859 5860 5860 5860 5860 5861 5861 5862 5862 5862 5862 5862 5863 5863 5863 5863 5864 5864 5864 5865 5865 5866 5866 5866 5867 5868 5868
5850 5851 5851 5851 5851 5852 5852 5852 5853 5853 5854 5854 5855 5855 5855 5856 5856 5857 5857 5857 5858 5859 5859 5859 5859 5859 5860 5860 5860 5861 5861 5861 5862 5862 5862 5862 5862 5862 5863 5863 5863 5864 5864 5865 5865 5865 5866 5866 5867
5850 5850 5850 5850 5851 5851 5851 5852 5852 5853 5853 5854 5854 5854 5855 5855 5856 5856 5857 5857 5857 5858 5858 5858 5859 5859 5859 5859 5859 5860 5860 5861 5861 5861 5861 5861 5861 5862 5862 5862 5862 5863 5863 5863 5864 5864 5864 5865 5865
5850 5849 5849 5850 5850 5850 5851 5851 5852 5852 5853 5853 5854 5854 5854 5855 5855 5856 5856 5856 5857 5857 5857 5858 5858 5858 5858 5858 5859 5859 5859 5860 5860 5860 5860 5860 5860 5861 5861 5861 5861 5861 5862 5862 5862 5863 5863 5863 5863
5848 5849 5849 5849 5849 5850 5850 5850 5851 5852 5852 5853 5853 5853 5854 5854 5854 5855 5855 5856 5856 5856 5857 5857 5857 5857 5858 5858 5858 5858 5858 5859 5859 5859 5859 5859 5859 5859 5859 5859 5859 5860 5860 5861 5861 5861 5861 5861 5861
5848 5849 5848 5848 5849 5849 5849 5850 5850 5851 5852 5852 5852 5853 5853 5853 5854 5854 5855 5855 5855 5856 5856 5856 5856 5857 5857 5857 5858 5858 5858 5858 5858 5858 5858 5858 5858 5858 5858 5858 5858 5858 5859 5859 5859 5859 5859 5859 5859
5847 5847 5847 5847 5848 5848 5848 5849 5849 5850 5850 5851 5852 5852 5852 5852 5853 5854 5854 5854 5854 5855 5855 5855 5856 5856 5856 5856 5857 5857 5857 5857 5857 5857 5857 5857 5857 5857 5857 5857 5857 5857 5857 5857 5857 5857 5858 5858 5858
5846 5846 5846 5846 5846 5847 5847 5848 5848 5849 5849 5850 5850 5851 5851 5851 5852 5853 5853 5853 5853 5854 5854 5854 5855 5855 5855 5855 5856 5856 5856 5856 5856 5856 5856 5856 5856 5856 5856 5856 5856 5856 5856 5856 5855 5855 5856 5856 5856
5845 5845 5845 5845 5845 5845 5846 5846 5847 5847 5848 5848 5849 5849 5850 5850 5851 5851 5852 5852 5852 5853 5853 5853 5854 5854 5854 5854 5855 5855 5855 5855 5855 5855 5855 5855 5855 5855 5855 5855 5855 5855 5855 5854 5854 5854 5854 5854 5854
5844 5844 5843 5843 5844 5844 5845 5845 5845 5846 5846 5847 5847 5848 5849 5849 5850 5850 5850 5851 5851 5852 5852 5852 5853 5853 5853 5853 5853 5854 5854 5854 5854 5854 5854 5854 5854 5854 5854 5854 5853 5853 5853 5853 5853 5853 5852 5852 5852
5843 5842 5842 5842 5842 5843 5843 5844 5844 5845 5845 5845 5846 5846 5847 5848 5848 5849 5849 5849 5850 5851 5851 5851 5851 5852 5852 5852 5852 5852 5852 5852 5852 5853 5853 5853 5853 5853 5852 5852 5852 5852 5852 5852 5851 5851 5851 5850 5850
5841 5841 5841 5841 5841 5841 5842 5843 5843 5843 5843 5844 5844 5845 5845 5846 5846 5847 5848 5848 5849 5849 5849 5850 5850 5850 5851 5851 5851 5851 5851 5851 5851 5851 5851 5851 5851 5851 5851 5851 5850 5850 5850 5849 5849 5849 5849 5849 5848
5839 5840 5840 5840 5840 5840 5842 5841 5841 5841 5841 5842 5842 5843 5843 5844 5844 5845 5846 5846 5847 5847 5848 5848 5849 5849 5849 5849 5849 5849 5849 5849 5850 5850 5850 5850 5849 5849 5849 5849 5848 5848 5847 5847 5847 5846 5846 5846 5845
5838 5838 5838 5839 5838 5838 5839 5839 5839 5839 5839 5840 5840 5841 5841 5842 5842 5843 5844 5844 5845 5845 5846 5846 5847 5847 5847 5848 5848 5847 5848 5848 5848 5848 5848 5848 5847 5847 5847 5846 5846 5845 5845 5845 5844 5844 5844 5843 5843
5836 5836 5836 5836 5836 5836 5836 5836 5837 5837 5837 5837 5838 5838 5839 5839 5840 5841 5841 5842 5843 5844 5844 5845 5845 5845 5846 5846 5846 5846 5846 5846 5846 5846 5846 5846 5845 5845 5844 5844 5843 5843 5842 5842 5842 5841 5841 5840 5840
5833 5833 5833 5833 5833 5833 5833 5834 5834 5834 5835 5835 5835 5836 5837 5837 5838 5838 5839 5840 5841 5842 5842 5843 5843 5843 5844 5844 5844 5844 5844 5844 5844 5844 5843 5843 5843 5842 5842 5841 5841 5840 5840 5839 5839 5838 5838 5837 5837
5830 5830 5830 5831 5830 5830 5830 5831 5831 5831 5832 5832 5833 5833 5834 5835 5836 5836 5837 5837 5838 5839 5840 5840 5841 5841 5842 5842 5842 5842 5842 5842 5841 5841 5841 5840 5840 5840 5839 5838 5838 5837 5837 5836 5836 5835 5834 5833 5833
5827 5827 5827 5827 5827 5827 5827 5828 5828 5828 5828 5829 5830 5831 5832 5832 5833 5833 5834 5835 5836 5837 5837 5838 5838 5838 5839 5839 5839 5840 5839 5839 5839 5838 5838 5837 5837 5837 5836 5835 5835 5834 5834 5833 5832 5831 5831 5830 5829
5823 5823 5823 5823 5823 5823 5824 5824 5825 5825 5825 5826 5827 5827 5828 5829 5830 5831 5831 5832 5832 5833 5834 5835 5835 5836 5836 5836 5837 5837 5837 5837 5836 5836 5835 5834 5834 5833 5833 5832 5831 5831 5830 5829 5829 5828 5827 5826 5825
5819 5819 5819 5819 5819 5819 5820 5820 5822 5821 5822 5822 5823 5824 5825 5826 5827 5827 5828 5829 5829 5830 5831 5831 5831 5832 5833 5833 5833 5833 5833 5833 5833 5832 5832 5831 5831 5830 5829 5828 5828 5827 5826 5825 5824 5823 5823 5822 5821
5814 5815 5815 5815 5815 5816 5816 5816 5817 5818 5818 5819 5820 5820 5821 5822 5823 5824 5825 5825 5826 5827 5827 5828 5828 5828 5829 5829 5830 5830 5830 5830 5829 5829 5828 5828 5827 5826 5826 5825 5824 5823 5822 5821 5820 5819 5818 5817 5816
5810 5811 5810 5810 5810 5812 5812 5812 5813 5814 5814 5815 5816 5817 5817 5818 5819 5820 5820 5821 5822 5823 5823 5824 5824 5825 5825 5826 5826 5826 5826 5826 5826 5825 5824 5824 5823 5823 5822 5821 5820 5819 5818 5817 5816 5815 5813 5812 5811
5805 5806 5806 5806 5806 5807 5807 5807 5810 5810 5810 5811 5812 5813 5813 5814 5815 5816 5816 5817 5817 5818 5819 5820 5820 5821 5821 5822 5822 5822 5822 5822 5821 5821 5820 5820 5819 5819 5818 5817 5816 5815 5814 5813 5812 5810 5809 5808 5806
5800 5800 5801 5801 5801 5802 5803 5804 5805 5805 5806 5806 5807 5808 5809 5809 5810 5811 5811 5812 5813 5813 5814 5815 5816 5816 5817 5817 5817 5817 5817 5817 5817 5816 5816 5815 5815 5814 5814 5813 5812 5811 5809 5808 5807 5805 5804 5803 5801
5796 5796 5796 5796 5796 5796 5798 5799 5801 5801 5801 5802 5802 5803 5804 5804 5805 5806 5806 5807 5808 5809 5809 5810 5810 5811 5812 5812 5812 5812 5812 5812 5811 5811 5811 5811 5810 5810 5809 5808 5807 5806 5805 5803 5802 5800 5799 5797 5796
5791 5791 5791 5791 5791 5792 5793 5797 5796 5797 5797 5797 5797 5798 5799 5800 5800 5801 5801 5802 5803 5803 5804 5805 5805 5806 5806 5806 5806 5806 5806 5806 5806 5806 5806 5806 5805 5805 5804 5803 5802 5801 5800 5798 5797 5795 5793 5792 5790
5785 5786 5786 5787 5787 5787 5787 5793 5791 5792 5792 5792 5793 5793 5794 5794 5795 5795 5796 5796 5797 5797 5798 5799 5800 5800 5801 5801 5801 5801 5801 5801 5801 5801 5801 5800 5800 5799 5799 5798 5797 5795 5794 5793 5791 5789 5788 5786 5785